STARLINK-35114 (65502 NORAD) Tracking and Keplerian Element Data

This shows tracking and keplerian element data for the satellite.

Feedback or suggestion? Click here.




ElementValue
Catalog65502
NameSTARLINK-35114
Epoch Orbit1638
Epoch Day354.08669618
Epoch Year2025
RAAN284.2247
Inclination53.1602
Eccentricity0.0001042
Argument of Perigee103.2056
Mean Anonmoly256.9065
Mean Motion15.39575314
Decay Rate0.00032178
L11 65502U 25198L 25354.08669618 .00032178 00000+0 81221-3 0 9993
L22 65502 53.1602 284.2247 0001042 103.2056 256.9065 15.39575314 16384



Live tracking and technical data element details for STARLINK-35114 (NORAD 65502). STARLINK-35114 can be tracked NOW for your location showing map with azimuth and elevation plus other details from your city location.







IsCatalogInMostPopularTable: catalog: 65502, numindb: 5
Update: records affected: 1



GetName: 65502 STARLINK-35114

Hit Count: updated at: Tue, 10 Feb 2026 03:47:54 GMT